TimePDT,TemperatureF,Dew PointF,Humidity,Sea Level PressureIn,VisibilityMPH,Wind Direction,Wind SpeedMPH,Gust SpeedMPH,PrecipitationIn,Events,Conditions,WindDirDegrees,DateUTC
12:15 AM,53.6,26.6,35,30.30,10.0,NNE,11.5,-,N/A,,Clear,30,2012-10-04 07:15:00
12:35 AM,51.8,24.8,35,30.30,10.0,NNE,11.5,-,N/A,,Clear,20,2012-10-04 07:35:00
12:55 AM,53.6,24.8,33,30.29,10.0,NNE,9.2,-,N/A,,Clear,20,2012-10-04 07:55:00
1:15 AM,53.6,24.8,33,30.29,10.0,NNE,13.8,-,N/A,,Clear,20,2012-10-04 08:15:00
1:35 AM,51.8,24.8,35,30.29,10.0,NNE,12.7,-,N/A,,Clear,20,2012-10-04 08:35:00
1:55 AM,51.8,24.8,35,30.29,10.0,NNE,11.5,-,N/A,,Clear,20,2012-10-04 08:55:00
2:15 AM,51.8,24.8,35,30.29,10.0,NNE,9.2,-,N/A,,Clear,30,2012-10-04 09:15:00
2:35 AM,50.0,24.8,37,30.28,10.0,NNE,9.2,-,N/A,,Clear,20,2012-10-04 09:35:00
2:55 AM,50.0,24.8,37,30.29,10.0,NE,10.4,-,N/A,,Clear,40,2012-10-04 09:55:00
3:15 AM,50.0,24.8,37,30.29,10.0,NNE,9.2,-,N/A,,Clear,30,2012-10-04 10:15:00
3:55 AM,50.0,24.8,37,30.29,10.0,NNE,11.5,-,N/A,,Clear,30,2012-10-04 10:55:00
4:15 AM,50.0,24.8,37,30.28,10.0,NNE,9.2,-,N/A,,Clear,30,2012-10-04 11:15:00
4:35 AM,50.0,24.8,37,30.28,10.0,NNE,8.1,-,N/A,,Clear,30,2012-10-04 11:35:00
4:55 AM,50.0,24.8,37,30.28,10.0,NNE,10.4,-,N/A,,Clear,20,2012-10-04 11:55:00
5:15 AM,50.0,24.8,37,30.27,10.0,NNE,10.4,-,N/A,,Clear,30,2012-10-04 12:15:00
5:35 AM,48.2,24.8,40,30.28,10.0,NE,11.5,-,N/A,,Clear,40,2012-10-04 12:35:00
5:55 AM,48.2,24.8,40,30.29,10.0,NNE,10.4,-,N/A,,Clear,30,2012-10-04 12:55:00
6:15 AM,48.2,26.6,43,30.29,10.0,NE,11.5,-,N/A,,Clear,40,2012-10-04 13:15:00
6:35 AM,48.2,26.6,43,30.29,10.0,NE,11.5,17.3,N/A,,Clear,40,2012-10-04 13:35:00
6:55 AM,48.2,26.6,43,30.29,10.0,NNE,13.8,-,N/A,,Clear,30,2012-10-04 13:55:00
7:15 AM,48.2,28.4,46,30.29,10.0,NNE,11.5,-,N/A,,Clear,20,2012-10-04 14:15:00
7:35 AM,48.2,28.4,46,30.29,10.0,NNE,11.5,-,N/A,,Clear,30,2012-10-04 14:35:00
7:55 AM,48.2,30.2,50,30.30,10.0,NNE,11.5,-,N/A,,Clear,30,2012-10-04 14:55:00
8:15 AM,50.0,30.2,47,30.31,10.0,NE,6.9,-,N/A,,Clear,50,2012-10-04 15:15:00
8:35 AM,51.8,32.0,47,30.30,10.0,NE,11.5,-,N/A,,Clear,40,2012-10-04 15:35:00
8:55 AM,51.8,32.0,47,30.31,10.0,NE,13.8,-,N/A,,Clear,40,2012-10-04 15:55:00
9:15 AM,53.6,33.8,47,30.31,10.0,NNE,12.7,17.3,N/A,,Clear,30,2012-10-04 16:15:00
9:35 AM,53.6,33.8,47,30.30,10.0,NNE,12.7,-,N/A,,Clear,30,2012-10-04 16:35:00
9:55 AM,55.4,33.8,44,30.31,10.0,NNE,12.7,20.7,N/A,,Clear,20,2012-10-04 16:55:00
10:15 AM,55.4,33.8,44,30.30,10.0,NNE,17.3,23.0,N/A,,Clear,30,2012-10-04 17:15:00
10:35 AM,57.2,33.8,41,30.31,10.0,NNE,15.0,-,N/A,,Clear,30,2012-10-04 17:35:00
10:55 AM,59.0,33.8,39,30.31,10.0,NNE,16.1,-,N/A,,Clear,30,2012-10-04 17:55:00
11:35 AM,60.8,33.8,36,30.30,10.0,NNE,13.8,-,N/A,,Clear,20,2012-10-04 18:35:00
11:55 AM,60.8,33.8,36,30.31,10.0,NNE,13.8,-,N/A,,Clear,20,2012-10-04 18:55:00
12:15 PM,62.6,33.8,34,30.31,10.0,North,13.8,17.3,N/A,,Clear,10,2012-10-04 19:15:00
12:35 PM,62.6,32.0,32,30.30,10.0,North,13.8,19.6,N/A,,Clear,10,2012-10-04 19:35:00
12:55 PM,64.4,30.2,28,30.30,10.0,North,13.8,-,N/A,,Clear,10,2012-10-04 19:55:00
1:15 PM,64.4,30.2,28,30.29,10.0,North,13.8,19.6,N/A,,Clear,10,2012-10-04 20:15:00
1:35 PM,64.4,30.2,28,30.29,10.0,North,15.0,19.6,N/A,,Clear,10,2012-10-04 20:35:00
1:55 PM,64.4,32.0,30,30.29,10.0,NNE,11.5,18.4,N/A,,Clear,30,2012-10-04 20:55:00
2:15 PM,64.4,30.2,28,30.28,10.0,NNE,12.7,17.3,N/A,,Clear,30,2012-10-04 21:15:00
2:35 PM,64.4,30.2,28,30.28,10.0,NNE,10.4,-,N/A,,Clear,20,2012-10-04 21:35:00
2:55 PM,66.2,30.2,26,30.28,10.0,NNE,10.4,16.1,N/A,,Clear,20,2012-10-04 21:55:00
3:15 PM,66.2,30.2,26,30.27,10.0,NNE,11.5,-,N/A,,Clear,30,2012-10-04 22:15:00
3:35 PM,64.4,32.0,30,30.27,10.0,NE,10.4,-,N/A,,Clear,40,2012-10-04 22:35:00
3:55 PM,64.4,32.0,30,30.28,10.0,NE,10.4,-,N/A,,Clear,40,2012-10-04 22:55:00
4:15 PM,64.4,32.0,30,30.27,10.0,NNE,11.5,-,N/A,,Clear,30,2012-10-04 23:15:00
4:35 PM,64.4,32.0,30,30.27,10.0,North,11.5,-,N/A,,Clear,10,2012-10-04 23:35:00
4:55 PM,64.4,30.2,28,30.27,10.0,North,9.2,-,N/A,,Clear,10,2012-10-04 23:55:00
5:15 PM,64.4,28.4,26,30.26,10.0,NNE,12.7,-,N/A,,Clear,20,2012-10-05 00:15:00
5:35 PM,62.6,28.4,27,30.26,10.0,NNE,12.7,-,N/A,,Clear,20,2012-10-05 00:35:00
5:55 PM,62.6,26.6,26,30.25,10.0,NNE,12.7,-,N/A,,Clear,20,2012-10-05 00:55:00
6:15 PM,60.8,26.6,27,30.26,10.0,NNE,10.4,-,N/A,,Clear,20,2012-10-05 01:15:00
6:35 PM,59.0,26.6,29,30.26,10.0,NNE,13.8,-,N/A,,Clear,30,2012-10-05 01:35:00
6:55 PM,57.2,24.8,29,30.26,10.0,NNE,13.8,19.6,N/A,,Clear,30,2012-10-05 01:55:00
7:15 PM,57.2,26.6,31,30.26,10.0,NNE,12.7,-,N/A,,Clear,30,2012-10-05 02:15:00
7:35 PM,55.4,26.6,33,30.26,10.0,NNE,12.7,-,N/A,,Clear,30,2012-10-05 02:35:00
7:55 PM,55.4,28.4,36,30.27,10.0,NE,10.4,-,N/A,,Clear,40,2012-10-05 02:55:00
8:15 PM,55.4,28.4,36,30.26,10.0,NE,10.4,-,N/A,,Clear,40,2012-10-05 03:15:00
8:35 PM,53.6,30.2,41,30.26,10.0,NE,8.1,-,N/A,,Clear,40,2012-10-05 03:35:00
8:55 PM,53.6,30.2,41,30.27,10.0,NE,9.2,-,N/A,,Clear,50,2012-10-05 03:55:00
9:15 PM,53.6,30.2,41,30.28,10.0,NE,10.4,-,N/A,,Clear,40,2012-10-05 04:15:00
9:35 PM,51.8,32.0,47,30.28,10.0,NE,10.4,-,N/A,,Clear,40,2012-10-05 04:35:00
9:55 PM,51.8,33.8,50,30.28,10.0,NE,6.9,-,N/A,,Clear,50,2012-10-05 04:55:00
10:15 PM,50.0,32.0,50,30.29,10.0,NNE,9.2,-,N/A,,Clear,30,2012-10-05 05:15:00
10:35 PM,50.0,32.0,50,30.29,10.0,NE,6.9,-,N/A,,Clear,50,2012-10-05 05:35:00
10:55 PM,48.2,32.0,54,30.29,10.0,NE,5.8,-,N/A,,Clear,40,2012-10-05 05:55:00
11:15 PM,48.2,32.0,54,30.30,10.0,NE,5.8,-,N/A,,Clear,40,2012-10-05 06:15:00
11:35 PM,50.0,33.8,54,30.29,10.0,NE,6.9,-,N/A,,Clear,50,2012-10-05 06:35:00
11:55 PM,51.8,30.2,44,30.29,10.0,NE,12.7,-,N/A,,Clear,40,2012-10-05 06:55:00